SQ9RHX-13 Weather Reports


time (UTC)temp
F
wind
direction
speed
knots
gust
knots
rain 1hr
in
rain 24hr
in
rain mn
in
humidity
%
barometer
mb
20260506082503 69 152 0.9 1.7 0.00 0.00 0.00 60 1009.8
20260506082005 68 43 0.9 2.6 0.00 0.00 0.00 60 1009.7
20260506081503 67 286 1.7 2.6 0.00 0.00 0.00 63 1009.8
20260506081002 68 299 1.7 5.2 0.00 0.00 0.00 61 1009.7
20260506080503 67 261 0.9 4.3 0.00 0.00 0.00 63 1009.8
20260506073502 67 302 4.3 5.2 0.00 0.00 0.00 64 1009.6
20260506073003 65 171 3.5 5.2 0.00 0.00 0.00 67 1009.4
20260506072503 65 301 0.9 2.6 0.00 0.00 0.00 68 1009.4
20260506072005 65 214 2.6 4.3 0.00 0.00 0.00 67 1009.4
20260506071503 64 140 0.0 1.7 0.00 0.00 0.00 69 1009.2
20260506071003 65 314 1.7 4.3 0.00 0.00 0.00 66 1009.3
20260506070504 65 80 1.7 2.6 0.00 0.00 0.00 66 1009.3
20260506062503 60 55 0.0 1.7 0.00 0.00 0.00 75 1009.3
20260506062005 59 199 2.6 2.6 0.00 0.00 0.00 75 1009.3
20260506061504 58 167 0.0 1.7 0.00 0.00 0.00 77 1009.6
20260506061005 57 145 0.0 1.7 0.00 0.00 0.00 79 1009.5
20260506060503 58 154 0.0 0.9 0.00 0.00 0.00 78 1009.4
20260506051004 56 132 0.0 0.9 0.00 0.00 0.00 82 1009.1
20260506050502 56 13 0.0 0.9 0.00 0.00 0.00 81 1009.0
20260506045003 55 44 0.0 0.0 0.00 0.00 0.00 84 1008.8
20260506044503 55 329 1.7 1.7 0.00 0.00 0.00 85 1008.8
20260506044004 54 172 0.9 0.9 0.00 0.00 0.00 86 1009.1
20260506043503 54 10 0.0 0.9 0.00 0.00 0.00 88 1008.9
20260506043003 53 88 0.0 0.9 0.00 0.00 0.00 90 1008.8
20260506042502 53 12 0.0 1.7 0.00 0.00 0.00 91 1008.5
20260506042002 52 359 0.0 0.9 0.00 0.00 0.00 93 1008.4
20260506041505 52 14 0.0 0.0 0.00 0.00 0.00 94 1008.7
20260506041004 51 39 0.0 0.0 0.00 0.00 0.00 94 1008.7
20260506040502 51 20 0.0 0.0 0.00 0.00 0.00 94 1008.9
20260506040005 51 20 0.0 0.0 0.00 0.00 0.00 94 1008.7
20260506035504 51 20 0.0 0.0 0.00 0.00 0.00 94 1008.8
20260506035003 50 20 0.0 0.0 0.00 0.00 0.00 94 1008.5
20260506034503 49 20 0.0 0.0 0.00 0.00 0.00 94 1008.5
20260506034004 49 20 0.0 0.0 0.00 0.00 0.00 93 1008.1
20260506033503 49 20 0.0 0.0 0.00 0.00 0.00 93 1008.1
20260506033003 49 20 0.0 0.0 0.00 0.00 0.00 92 1008.1
20260506032503 49 20 0.0 0.0 0.00 0.00 0.00 92 1008.1
20260506032002 49 20 0.0 0.0 0.00 0.00 0.00 92 1008.2
20260506031503 49 20 0.0 0.0 0.00 0.00 0.00 92 1008.1
20260506031004 50 20 0.0 0.0 0.00 0.00 0.00 91 1008.1
20260506030503 50 20 0.0 0.0 0.00 0.00 0.00 91 1008.2
20260506030003 50 20 0.0 0.0 0.00 0.00 0.00 91 1008.2
20260506025504 51 20 0.0 0.0 0.00 0.00 0.00 91 1008.3
20260506025004 51 20 0.0 0.0 0.00 0.00 0.00 91 1008.4
20260506024505 51 20 0.0 0.0 0.00 0.00 0.00 91 1008.6
20260506024003 51 20 0.0 0.0 0.00 0.00 0.00 91 1008.6
20260506023503 51 44 0.0 0.0 0.00 0.00 0.00 91 1008.6
20260506023005 51 20 0.0 0.0 0.00 0.00 0.00 92 1008.8
20260506022502 51 14 0.0 0.9 0.00 0.00 0.00 92 1008.9
20260506022003 50 10 0.0 0.9 0.00 0.00 0.00 92 1009.1
20260506021503 50 18 0.0 0.0 0.00 0.00 0.00 91 1008.7
20260506021004 51 18 0.0 0.0 0.00 0.00 0.00 91 1008.8
20260506020505 51 18 0.0 0.0 0.00 0.00 0.00 92 1008.8
20260506020003 51 18 0.0 0.0 0.00 0.00 0.00 92 1009.0
20260506015506 51 18 0.0 0.0 0.00 0.00 0.00 92 1008.9
20260506015005 50 19 0.0 0.0 0.00 0.00 0.00 92 1008.8
20260506014503 50 19 0.0 0.0 0.00 0.00 0.00 92 1008.6
20260506014004 49 24 0.0 0.0 0.00 0.00 0.00 91 1008.9
20260506013503 50 24 0.0 0.0 0.00 0.00 0.00 91 1008.8
20260506013003 50 24 0.0 0.0 0.00 0.00 0.00 91 1008.9
20260506012506 50 24 0.0 0.0 0.00 0.00 0.00 91 1008.7
20260506012003 50 24 0.0 0.0 0.00 0.00 0.00 91 1008.9
20260506011503 50 24 0.0 0.0 0.00 0.00 0.00 90 1008.8
20260506011005 50 24 0.0 0.0 0.00 0.00 0.00 90 1008.8
20260506010504 50 24 0.0 0.0 0.00 0.00 0.00 90 1008.8
20260506010003 50 24 0.0 0.0 0.00 0.00 0.00 90 1008.8
20260506005503 50 24 0.0 0.0 0.00 0.00 0.00 89 1008.8
20260506005003 51 24 0.0 0.0 0.00 0.00 0.00 89 1008.8
20260506004503 51 24 0.0 0.0 0.00 0.00 0.00 89 1008.9
20260506004004 51 24 0.0 0.0 0.00 0.00 0.00 89 1008.9
20260506003502 51 24 0.0 0.0 0.00 0.00 0.00 88 1008.8
20260506003002 51 24 0.0 0.0 0.00 0.00 0.00 88 1008.7
20260506002502 52 24 0.0 0.0 0.00 0.00 0.00 88 1008.6
20260506002003 51 24 0.0 0.0 0.00 0.00 0.00 89 1008.7
20260506001504 51 24 0.0 0.0 0.00 0.00 0.00 89 1008.8
20260506001004 51 24 0.0 0.0 0.00 0.00 0.00 88 1008.8
20260506000503 52 24 0.0 0.0 0.00 0.00 0.00 88 1008.8
20260506000003 52 24 0.0 0.0 0.00 0.00 0.00 87 1008.8
20260505235503 52 24 0.0 0.0 0.00 0.00 0.00 86 1008.7
20260505235003 53 24 0.0 0.0 0.00 0.00 0.00 86 1008.7
20260505234505 53 24 0.0 0.0 0.00 0.00 0.00 86 1008.6
20260505234003 53 23 0.0 0.0 0.00 0.00 0.00 86 1008.8
20260505233503 53 24 0.0 0.0 0.00 0.00 0.00 85 1009.0
20260505233003 53 24 0.0 0.0 0.00 0.00 0.00 84 1008.6
20260505232503 54 24 0.0 0.0 0.00 0.00 0.00 83 1008.9
20260505232003 54 24 0.0 0.0 0.00 0.00 0.00 82 1008.8
20260505231504 55 55 0.0 0.0 0.00 0.00 0.00 81 1008.8
20260505231003 55 55 0.0 0.0 0.00 0.00 0.00 80 1008.8
20260505230502 56 55 0.0 0.0 0.00 0.00 0.00 78 1008.7
20260505230004 56 56 0.0 0.0 0.00 0.00 0.00 78 1008.7
20260505225502 56 42 0.0 1.7 0.00 0.00 0.00 81 1008.9
20260505225002 56 48 0.0 0.9 0.00 0.00 0.00 82 1008.9
20260505224502 55 50 0.0 0.9 0.00 0.00 0.00 83 1009.1
20260505224003 55 43 0.0 0.0 0.00 0.00 0.00 84 1009.2
20260505223503 55 50 0.0 0.0 0.00 0.00 0.00 85 1009.1
20260505223002 55 33 0.0 0.0 0.00 0.00 0.00 87 1009.3
20260505222504 55 31 0.0 0.0 0.00 0.00 0.00 87 1009.5
20260505222003 55 31 0.0 0.0 0.00 0.00 0.00 86 1009.4
20260505221505 55 31 0.0 0.0 0.00 0.00 0.00 85 1009.4
20260505221002 56 31 0.0 0.0 0.00 0.00 0.00 84 1009.3
20260505220504 56 31 0.0 0.0 0.00 0.00 0.00 83 1009.2
20260505220002 57 31 0.0 0.0 0.00 0.00 0.00 81 1009.3
20260505215506 58 31 0.0 0.0 0.00 0.00 0.00 79 1009.5
20260505215003 58 31 0.0 0.0 0.00 0.00 0.00 78 1009.4
20260505214504 59 31 0.0 0.0 0.00 0.00 0.00 77 1009.7
20260505214004 59 31 0.0 0.9 0.00 0.00 0.00 77 1009.4
20260505213503 59 31 0.0 0.0 0.00 0.00 0.00 77 1009.6
20260505213005 60 31 0.0 0.0 0.00 0.00 0.00 76 1009.6
20260505212508 60 30 0.9 1.7 0.00 0.00 0.00 76 1009.4
20260505212005 61 32 0.0 0.9 0.00 0.00 0.00 75 1009.5
20260505211503 61 36 0.0 2.6 0.00 0.00 0.00 75 1009.5
20260505211004 61 34 0.0 0.0 0.00 0.00 0.00 75 1009.4
20260505210503 61 13 0.9 1.7 0.00 0.00 0.00 74 1009.2
20260505210002 62 30 0.0 2.6 0.00 0.00 0.00 74 1009.4
20260505205502 62 25 0.0 2.6 0.00 0.00 0.00 74 1009.3
20260505205002 62 27 1.7 1.7 0.00 0.00 0.00 74 1009.4
20260505204502 62 16 1.7 2.6 0.00 0.00 0.00 73 1009.5
20260505204003 62 1 0.9 4.3 0.00 0.00 0.00 73 1009.4
20260505203505 63 2 0.9 2.6 0.00 0.00 0.00 72 1009.2
20260505203006 63 14 1.7 5.2 0.00 0.00 0.00 72 1009.6
20260505202504 63 12 2.6 5.2 0.00 0.00 0.00 71 1009.4
20260505202004 63 349 2.6 6.1 0.00 0.00 0.00 71 1009.5
20260505201503 64 34 1.7 2.6 0.00 0.00 0.00 71 1009.7
20260505201005 64 68 1.7 4.3 0.00 0.00 0.00 71 1009.3
20260505200503 64 40 3.5 4.3 0.00 0.00 0.00 71 1009.3
20260505200004 64 12 2.6 5.2 0.00 0.00 0.00 71 1009.4
20260505195504 64 26 0.0 2.6 0.00 0.00 0.00 71 1009.5
20260505195003 64 19 2.6 4.3 0.00 0.00 0.00 71 1009.2
20260505194506 64 28 2.6 2.6 0.00 0.00 0.00 71 1009.6
20260505194003 64 40 2.6 2.6 0.00 0.00 0.00 71 1009.2
20260505193503 64 23 1.7 4.3 0.00 0.00 0.00 71 1009.3
20260505193003 65 8 0.9 6.1 0.00 0.00 0.00 72 1009.4
20260505192504 65 19 1.7 5.2 0.00 0.00 0.00 72 1009.4
20260505192003 65 4 2.6 5.2 0.00 0.00 0.00 72 1009.5
20260505191502 64 21 0.9 5.2 0.00 0.00 0.00 73 1009.7
20260505191003 64 32 1.7 5.2 0.00 0.00 0.00 73 1009.6
20260505190502 64 43 2.6 2.6 0.00 0.00 0.00 73 1009.5
20260505190003 65 6 2.6 7.8 0.00 0.00 0.00 72 1009.4
20260505185504 65 9 4.3 7.0 0.00 0.00 0.00 72 1009.6
20260505185007 65 5 2.6 5.2 0.00 0.00 0.00 71 1009.6
20260505184502 66 10 4.3 5.2 0.00 0.00 0.00 71 1009.9
20260505184003 66 27 0.9 4.3 0.00 0.00 0.00 71 1010.0
20260505183502 66 17 0.0 1.7 0.00 0.00 0.00 71 1009.8
20260505183004 67 13 0.9 4.3 0.00 0.00 0.00 70 1009.9
20260505182502 68 31 2.6 6.1 0.00 0.00 0.00 67 1009.9
20260505182003 68 8 0.9 1.7 0.00 0.00 0.00 64 1009.8
20260505181503 69 323 1.7 2.6 0.00 0.00 0.00 64 1009.6
20260505181003 69 5 0.9 1.7 0.00 0.00 0.00 63 1009.4
20260505180504 69 345 2.6 5.2 0.00 0.00 0.00 63 1009.4
20260505180003 69 34 1.7 4.3 0.00 0.00 0.00 63 1009.3
20260505175004 69 9 4.3 6.1 0.00 0.00 0.00 62 1009.2
20260505174503 70 335 2.6 5.2 0.00 0.00 0.00 62 1009.0
20260505174002 70 17 0.9 7.0 0.00 0.00 0.00 62 1009.0
20260505173504 70 24 3.5 5.2 0.00 0.00 0.00 61 1008.9
20260505173004 71 336 2.6 7.0 0.00 0.00 0.00 60 1009.0
20260505172504 71 359 2.6 8.7 0.00 0.00 0.00 60 1009.0
20260505172003 71 25 4.3 8.7 0.00 0.00 0.00 59 1009.1
20260505171504 72 33 2.6 5.2 0.00 0.00 0.00 59 1009.0
20260505171003 72 337 4.3 5.2 0.00 0.00 0.00 58 1008.9
20260505170505 73 19 5.2 7.8 0.00 0.00 0.00 57 1009.0
20260505170004 73 333 2.6 7.8 0.00 0.00 0.00 56 1008.9
20260505165504 74 341 5.2 7.8 0.00 0.00 0.00 55 1008.9
20260505165004 75 333 2.6 6.1 0.00 0.00 0.00 53 1009.0
20260505164502 78 11 2.6 6.1 0.00 0.00 0.00 47 1008.8
20260505164003 78 353 0.9 4.3 0.00 0.00 0.00 36 1008.7
20260505163502 78 44 0.9 2.6 0.00 0.00 0.00 36 1008.5
20260505163004 78 34 0.9 2.6 0.00 0.00 0.00 36 1008.6
20260505162502 78 39 2.6 4.3 0.00 0.00 0.00 36 1008.7
20260505162003 78 39 0.0 2.6 0.00 0.00 0.00 37 1008.6
20260505161505 79 347 2.6 5.2 0.00 0.00 0.00 35 1008.7
20260505161002 79 66 1.7 4.3 0.00 0.00 0.00 34 1008.8
20260505160504 80 339 1.7 2.6 0.00 0.00 0.00 33 1008.7
20260505153005 83 35 0.0 0.9 0.00 0.00 0.00 30 1009.1
20260505152503 82 6 0.0 0.9 0.00 0.00 0.00 31 1009.1
20260505152004 82 50 1.7 4.3 0.00 0.00 0.00 30 1009.2
20260505151506 82 66 0.9 1.7 0.00 0.00 0.00 32 1009.2
20260505151004 82 23 0.0 1.7 0.00 0.00 0.00 31 1009.0
20260505150503 83 347 0.9 1.7 0.00 0.00 0.00 30 1008.9
20260505140502 80 35 0.0 0.9 0.00 0.00 0.00 34 1009.5
20260505125004 84 267 0.0 2.6 0.00 0.00 0.00 31 1010.0
20260505124503 84 17 0.0 1.7 0.00 0.00 0.00 31 1009.9
20260505124004 84 338 0.9 1.7 0.00 0.00 0.00 29 1009.9
20260505123505 84 164 0.9 2.6 0.00 0.00 0.00 29 1010.0
20260505123005 84 167 0.9 2.6 0.00 0.00 0.00 30 1010.0
20260505122504 82 194 0.0 0.9 0.00 0.00 0.00 31 1010.2
20260505122003 82 169 1.7 1.7 0.00 0.00 0.00 30 1010.2
20260505121504 81 64 1.7 2.6 0.00 0.00 0.00 31 1010.3
20260505121006 81 131 1.7 2.6 0.00 0.00 0.00 31 1010.4
20260505120503 82 6 0.9 4.3 0.00 0.00 0.00 33 1010.5
20260505120004 81 293 1.7 1.7 0.00 0.00 0.00 33 1010.4
20260505115504 82 40 0.9 2.6 0.00 0.00 0.00 32 1010.5
20260505115003 82 94 0.9 4.3 0.00 0.00 0.00 32 1010.6
20260505114505 82 71 2.6 4.3 0.00 0.00 0.00 31 1010.6
20260505114004 81 64 0.0 0.9 0.00 0.00 0.00 33 1010.6
20260505113502 82 93 2.6 2.6 0.00 0.00 0.00 31 1010.6
20260505113004 82 54 0.9 1.7 0.00 0.00 0.00 30 1010.6
20260505112503 82 338 0.9 1.7 0.00 0.00 0.00 32 1010.8
20260505112002 81 193 0.0 0.9 0.00 0.00 0.00 35 1010.7
20260505111503 81 135 0.0 1.7 0.00 0.00 0.00 32 1010.8
20260505111003 80 148 0.9 4.3 0.00 0.00 0.00 33 1010.9
20260505110502 80 9 1.7 2.6 0.00 0.00 0.00 35 1010.9
20260505102003 78 56 1.7 2.6 0.00 0.00 0.00 39 1011.3
20260505101504 78 24 3.5 5.2 0.00 0.00 0.00 39 1011.3
20260505101003 78 29 0.9 2.6 0.00 0.00 0.00 40 1011.3
20260505100505 76 38 0.9 4.3 0.00 0.00 0.00 41 1011.3
20260505100002 75 358 0.9 1.7 0.00 0.00 0.00 42 1011.5
20260505095503 75 357 0.9 1.7 0.00 0.00 0.00 43 1011.4
20260505095004 75 343 2.6 2.6 0.00 0.00 0.00 42 1011.5
20260505094503 75 2 0.0 1.7 0.00 0.00 0.00 42 1011.6
20260505094003 75 343 0.9 4.3 0.00 0.00 0.00 41 1011.6
20260505093503 75 2 0.9 2.6 0.00 0.00 0.00 42 1011.7
20260505093002 75 353 0.9 1.7 0.00 0.00 0.00 42 1011.6
20260505092503 75 122 0.9 1.7 0.00 0.00 0.00 39 1011.5
20260505092003 76 169 0.9 2.6 0.00 0.00 0.00 40 1011.8
20260505091503 75 62 0.0 0.9 0.00 0.00 0.00 41 1011.7
20260505091004 75 180 0.9 1.7 0.00 0.00 0.00 38 1011.9
20260505090503 76 149 0.9 2.6 0.00 0.00 0.00 41 1012.0
20260505090004 75 78 0.0 1.7 0.00 0.00 0.00 42 1011.9
20260505085503 73 40 0.9 1.7 0.00 0.00 0.00 44 1012.0
20260505085004 71 103 0.0 0.9 0.00 0.00 0.00 46 1012.0
20260505084503 71 37 0.9 0.9 0.00 0.00 0.00 50 1012.1
20260505084003 71 100 0.9 0.9 0.00 0.00 0.00 53 1012.2
20260505083503 72 40 0.0 0.9 0.00 0.00 0.00 52 1012.2
20260505083003 70 43 0.0 0.9 0.00 0.00 0.00 55 1012.4